Location: Tr�vern
(48.0333°N, 4.6000°W)
Time: 18:12:14
(UTC+00:00)

Meteor 1-4 Rocket - Pass Details

Date: 14 July 2020
Orbit: 449 x 503 km, 81.2° (Epoch: 12 August)

Event Time Altitude Azimuth Distance (km) Brightness Sun altitude
Rises 01:49:53 0° 337° (NNW) 2,589 7.0 -17.7°
Reaches altitude 10° 01:52:17 10° 323° (NW) 1,692 5.7 -17.6°
Maximum altitude 01:55:18 24° 269° (W) 1,051 4.0 -17.4°
Enters shadow 01:55:34 24° 261° (W) 1,056 4.0 -17.4°
